| time (UTC) | temp F | wind direction | speed MPH | gust MPH | rain 1hr in | rain 24hr in | rain mn in | humidity % | barometer mb |
| 20260507083639 | 32 | 94 | 0.0 | 0.0 | 0.00 | 0.00 | 0.00 | 84 | 1015.4 |
| 20260507083136 | 32 | 92 | 0.0 | 0.0 | 0.00 | 0.00 | 0.00 | 84 | 1015.3 |
| 20260507082632 | 32 | 85 | 0.0 | 0.0 | 0.00 | 0.00 | 0.00 | 85 | 1015.1 |
| 20260507082128 | 32 | 86 | 0.0 | 0.0 | 0.00 | 0.00 | 0.00 | 85 | 1015.1 |
| 20260507081625 | 32 | 91 | 0.0 | 0.0 | 0.00 | 0.00 | 0.00 | 84 | 1015.1 |
| 20260507081121 | 32 | 93 | 0.0 | 0.0 | 0.00 | 0.00 | 0.00 | 84 | 1015.0 |
| 20260507080618 | 32 | 85 | 0.0 | 0.0 | 0.00 | 0.00 | 0.00 | 83 | 1015.2 |
| 20260507080114 | 33 | 95 | 0.0 | 0.0 | 0.00 | 0.00 | 0.00 | 82 | 1015.2 |
| 20260507075609 | 33 | 95 | 0.0 | 0.0 | 0.00 | 0.00 | 0.00 | 81 | 1015.2 |
| 20260507075106 | 33 | 84 | 0.0 | 0.0 | 0.00 | 0.00 | 0.00 | 79 | 1015.3 |
| 20260507074603 | 33 | 84 | 0.0 | 0.0 | 0.00 | 0.00 | 0.00 | 79 | 1015.1 |
| 20260507074101 | 34 | 103 | 0.0 | 0.0 | 0.00 | 0.00 | 0.00 | 79 | 1015.3 |
| 20260507073556 | 34 | 80 | 0.0 | 0.0 | 0.00 | 0.00 | 0.00 | 78 | 1015.1 |
| 20260507073053 | 34 | 79 | 0.0 | 0.0 | 0.00 | 0.00 | 0.00 | 77 | 1015.4 |
| 20260507072551 | 34 | 85 | 0.0 | 0.0 | 0.00 | 0.00 | 0.00 | 78 | 1015.3 |
| 20260507072048 | 33 | 86 | 0.0 | 0.0 | 0.00 | 0.00 | 0.00 | 79 | 1015.4 |
| 20260507071545 | 33 | 79 | 0.0 | 0.0 | 0.00 | 0.00 | 0.00 | 80 | 1015.3 |
| 20260507071041 | 33 | 85 | 0.0 | 0.0 | 0.00 | 0.00 | 0.00 | 80 | 1015.4 |
| 20260507070539 | 33 | 82 | 0.0 | 0.0 | 0.00 | 0.00 | 0.00 | 79 | 1015.4 |
| 20260507070036 | 34 | 79 | 0.0 | 0.0 | 0.00 | 0.00 | 0.00 | 78 | 1015.7 |
| 20260507065532 | 34 | 79 | 0.0 | 0.0 | 0.00 | 0.00 | 0.00 | 78 | 1015.8 |
| 20260507065029 | 34 | 80 | 0.0 | 0.0 | 0.00 | 0.00 | 0.00 | 78 | 1016.0 |
| 20260507064527 | 34 | 87 | 0.0 | 0.0 | 0.00 | 0.00 | 0.00 | 78 | 1015.9 |
| 20260507064026 | 35 | 86 | 0.0 | 0.0 | 0.00 | 0.00 | 0.00 | 77 | 1015.9 |
| 20260507063522 | 35 | 82 | 0.0 | 0.0 | 0.00 | 0.00 | 0.00 | 76 | 1015.9 |
| 20260507063020 | 35 | 85 | 0.0 | 0.0 | 0.00 | 0.00 | 0.00 | 76 | 1015.8 |
| 20260507062516 | 35 | 93 | 0.0 | 0.0 | 0.00 | 0.00 | 0.00 | 76 | 1016.1 |
| 20260507062014 | 35 | 92 | 0.0 | 0.0 | 0.00 | 0.00 | 0.00 | 76 | 1015.8 |
| 20260507061511 | 35 | 90 | 0.0 | 0.0 | 0.00 | 0.00 | 0.00 | 77 | 1016.1 |
| 20260507061009 | 35 | 90 | 0.0 | 0.0 | 0.00 | 0.00 | 0.00 | 77 | 1016.0 |
| 20260507060506 | 35 | 96 | 0.0 | 1.0 | 0.00 | 0.00 | 0.00 | 77 | 1015.9 |
| 20260507060003 | 35 | 95 | 0.0 | 0.0 | 0.00 | 0.00 | 0.00 | 76 | 1016.0 |
| 20260507055458 | 35 | 83 | 0.0 | 0.0 | 0.00 | 0.00 | 0.00 | 75 | 1016.0 |
| 20260507054955 | 35 | 84 | 0.0 | 0.0 | 0.00 | 0.00 | 0.00 | 74 | 1016.2 |
| 20260507054451 | 36 | 86 | 0.0 | 0.0 | 0.00 | 0.00 | 0.00 | 73 | 1016.0 |
| 20260507053948 | 35 | 84 | 0.0 | 0.0 | 0.00 | 0.00 | 0.00 | 73 | 1016.1 |
| 20260507053446 | 35 | 81 | 0.0 | 0.0 | 0.00 | 0.00 | 0.00 | 72 | 1016.2 |
| 20260507052944 | 36 | 81 | 0.0 | 0.0 | 0.00 | 0.00 | 0.00 | 71 | 1016.2 |
| 20260507052442 | 36 | 81 | 0.0 | 0.0 | 0.00 | 0.00 | 0.00 | 70 | 1016.2 |
| 20260507051938 | 37 | 81 | 0.0 | 0.0 | 0.00 | 0.00 | 0.00 | 68 | 1016.1 |
| 20260507051436 | 38 | 80 | 0.0 | 0.0 | 0.00 | 0.00 | 0.00 | 67 | 1016.1 |
| 20260507050932 | 38 | 79 | 0.0 | 0.0 | 0.00 | 0.00 | 0.00 | 66 | 1016.2 |
| 20260507050429 | 39 | 76 | 0.0 | 0.0 | 0.00 | 0.00 | 0.00 | 65 | 1015.9 |
| 20260507045926 | 38 | 74 | 0.0 | 0.0 | 0.00 | 0.00 | 0.00 | 66 | 1016.0 |
| 20260507045423 | 38 | 54 | 1.0 | 1.0 | 0.00 | 0.00 | 0.00 | 66 | 1016.1 |
| 20260507044920 | 38 | 77 | 0.0 | 0.0 | 0.00 | 0.00 | 0.00 | 66 | 1016.0 |
| 20260507044417 | 38 | 77 | 0.0 | 0.0 | 0.00 | 0.00 | 0.00 | 66 | 1016.2 |
| 20260507043913 | 39 | 73 | 0.0 | 0.0 | 0.00 | 0.00 | 0.00 | 64 | 1016.2 |
| 20260507043409 | 39 | 75 | 0.0 | 0.0 | 0.00 | 0.00 | 0.00 | 64 | 1016.1 |
| 20260507042905 | 39 | 86 | 0.0 | 0.0 | 0.00 | 0.00 | 0.00 | 64 | 1016.0 |
| 20260507042402 | 40 | 66 | 0.0 | 1.0 | 0.00 | 0.00 | 0.00 | 63 | 1016.1 |
| 20260507041858 | 40 | 76 | 0.0 | 0.0 | 0.00 | 0.00 | 0.00 | 62 | 1016.0 |
| 20260507041355 | 41 | 83 | 0.0 | 0.0 | 0.00 | 0.00 | 0.00 | 61 | 1016.3 |
| 20260507040852 | 41 | 72 | 1.0 | 1.0 | 0.00 | 0.00 | 0.00 | 59 | 1016.3 |
| 20260507040348 | 41 | 65 | 1.0 | 1.0 | 0.00 | 0.00 | 0.00 | 58 | 1016.4 |
| 20260507035844 | 42 | 78 | 0.0 | 1.0 | 0.00 | 0.00 | 0.00 | 58 | 1016.3 |
| 20260507035340 | 42 | 48 | 1.0 | 1.0 | 0.00 | 0.00 | 0.00 | 57 | 1016.3 |
| 20260507034837 | 42 | 74 | 0.0 | 0.0 | 0.00 | 0.00 | 0.00 | 57 | 1016.3 |
| 20260507034334 | 43 | 338 | 1.0 | 2.0 | 0.00 | 0.00 | 0.00 | 55 | 1016.5 |
| 20260507033832 | 43 | 333 | 2.0 | 2.0 | 0.00 | 0.00 | 0.00 | 54 | 1016.3 |
| 20260507033330 | 43 | 61 | 0.0 | 1.0 | 0.00 | 0.00 | 0.00 | 54 | 1016.1 |
| 20260507032827 | 43 | 88 | 1.0 | 1.0 | 0.00 | 0.00 | 0.00 | 54 | 1016.3 |
| 20260507032323 | 43 | 5 | 1.0 | 1.0 | 0.00 | 0.00 | 0.00 | 54 | 1016.4 |
| 20260507031819 | 44 | 335 | 2.0 | 3.0 | 0.00 | 0.00 | 0.00 | 53 | 1016.4 |
| 20260507031316 | 44 | 58 | 1.0 | 1.0 | 0.00 | 0.00 | 0.00 | 52 | 1016.1 |
| 20260507030812 | 44 | 270 | 3.0 | 5.0 | 0.00 | 0.00 | 0.00 | 52 | 1016.1 |
| 20260507030311 | 45 | 350 | 3.0 | 3.0 | 0.00 | 0.00 | 0.00 | 52 | 1016.2 |
| 20260507025807 | 45 | 314 | 5.0 | 6.0 | 0.00 | 0.00 | 0.00 | 51 | 1016.2 |
| 20260507025306 | 45 | 334 | 4.0 | 5.0 | 0.00 | 0.00 | 0.00 | 50 | 1016.0 |
| 20260507024802 | 45 | 334 | 2.0 | 3.0 | 0.00 | 0.00 | 0.00 | 51 | 1016.0 |
| 20260507024259 | 45 | 3 | 4.0 | 5.0 | 0.00 | 0.00 | 0.00 | 51 | 1016.1 |
| 20260507023755 | 46 | 52 | 2.0 | 2.0 | 0.00 | 0.00 | 0.00 | 52 | 1016.0 |
| 20260507023252 | 46 | 49 | 1.0 | 2.0 | 0.00 | 0.00 | 0.00 | 51 | 1015.9 |
| 20260507022749 | 46 | 263 | 4.0 | 6.0 | 0.00 | 0.00 | 0.00 | 49 | 1015.8 |
| 20260507022245 | 46 | 28 | 3.0 | 3.0 | 0.00 | 0.00 | 0.00 | 50 | 1015.8 |
| 20260507021742 | 46 | 248 | 3.0 | 3.0 | 0.00 | 0.00 | 0.00 | 51 | 1015.8 |
| 20260507021237 | 46 | 292 | 2.0 | 3.0 | 0.00 | 0.00 | 0.00 | 50 | 1015.7 |
| 20260507020736 | 46 | 280 | 4.0 | 5.0 | 0.00 | 0.00 | 0.00 | 50 | 1015.7 |
| 20260507020232 | 46 | 21 | 1.0 | 2.0 | 0.00 | 0.00 | 0.00 | 51 | 1015.6 |
| 20260507015729 | 46 | 348 | 2.0 | 3.0 | 0.00 | 0.00 | 0.00 | 51 | 1015.3 |
| 20260507015226 | 46 | 274 | 5.0 | 6.0 | 0.00 | 0.00 | 0.00 | 50 | 1015.4 |
| 20260507014723 | 46 | 65 | 2.0 | 2.0 | 0.00 | 0.00 | 0.00 | 50 | 1015.6 |
| 20260507014220 | 46 | 81 | 1.0 | 2.0 | 0.00 | 0.00 | 0.00 | 50 | 1015.1 |
| 20260507013716 | 47 | 242 | 2.0 | 2.0 | 0.00 | 0.00 | 0.00 | 50 | 1014.9 |
| 20260507013214 | 47 | 123 | 2.0 | 2.0 | 0.00 | 0.00 | 0.00 | 49 | 1015.1 |
| 20260507012711 | 48 | 204 | 3.0 | 3.0 | 0.00 | 0.00 | 0.00 | 49 | 1015.1 |
| 20260507012206 | 48 | 109 | 2.0 | 2.0 | 0.00 | 0.00 | 0.00 | 49 | 1015.1 |
| 20260507011704 | 48 | 327 | 2.0 | 2.0 | 0.00 | 0.00 | 0.00 | 49 | 1014.9 |
| 20260507011200 | 48 | 356 | 2.0 | 3.0 | 0.00 | 0.00 | 0.00 | 48 | 1014.9 |
| 20260507010700 | 48 | 277 | 3.0 | 5.0 | 0.00 | 0.00 | 0.00 | 48 | 1014.8 |
| 20260507010156 | 48 | 68 | 3.0 | 5.0 | 0.00 | 0.00 | 0.00 | 47 | 1014.8 |
| 20260507005654 | 48 | 291 | 3.0 | 3.0 | 0.00 | 0.00 | 0.00 | 49 | 1014.6 |
| 20260507005155 | 49 | 283 | 1.0 | 2.0 | 0.00 | 0.00 | 0.00 | 47 | 1014.6 |
| 20260507004652 | 49 | 32 | 2.0 | 2.0 | 0.00 | 0.00 | 0.00 | 47 | 1014.5 |
| 20260507004149 | 49 | 25 | 2.0 | 2.0 | 0.00 | 0.00 | 0.00 | 47 | 1014.3 |
| 20260507003646 | 50 | 202 | 1.0 | 1.0 | 0.00 | 0.00 | 0.00 | 47 | 1014.5 |
| 20260507003146 | 50 | 307 | 3.0 | 3.0 | 0.00 | 0.00 | 0.00 | 47 | 1014.5 |
| 20260507002643 | 50 | 159 | 3.0 | 3.0 | 0.00 | 0.00 | 0.00 | 46 | 1014.5 |
| 20260507002138 | 50 | 293 | 3.0 | 6.0 | 0.00 | 0.00 | 0.00 | 46 | 1014.1 |
| 20260507001635 | 50 | 321 | 4.0 | 7.0 | 0.00 | 0.00 | 0.00 | 45 | 1014.4 |
| 20260507001133 | 50 | 262 | 6.0 | 6.0 | 0.00 | 0.00 | 0.00 | 45 | 1014.3 |
| 20260507000629 | 50 | 286 | 5.0 | 7.0 | 0.00 | 0.00 | 0.00 | 44 | 1014.1 |
| 20260507000124 | 50 | 304 | 2.0 | 2.0 | 0.00 | 0.00 | 0.00 | 45 | 1014.1 |
| 20260506235622 | 50 | 309 | 3.0 | 5.0 | 0.00 | 0.00 | 0.00 | 43 | 1014.3 |
| 20260506235122 | 51 | 274 | 3.0 | 3.0 | 0.00 | 0.00 | 0.00 | 44 | 1014.2 |
| 20260506234620 | 51 | 97 | 4.0 | 5.0 | 0.00 | 0.00 | 0.00 | 43 | 1014.1 |
| 20260506234117 | 51 | 8 | 3.0 | 3.0 | 0.00 | 0.00 | 0.00 | 43 | 1013.9 |
| 20260506233614 | 51 | 248 | 2.0 | 3.0 | 0.00 | 0.00 | 0.00 | 44 | 1014.2 |
| 20260506233111 | 51 | 29 | 3.0 | 6.0 | 0.00 | 0.00 | 0.00 | 44 | 1014.1 |
| 20260506232607 | 51 | 298 | 3.0 | 5.0 | 0.00 | 0.00 | 0.00 | 44 | 1014.0 |
| 20260506232102 | 51 | 304 | 3.0 | 5.0 | 0.00 | 0.00 | 0.00 | 43 | 1014.0 |
| 20260506231600 | 51 | 316 | 3.0 | 6.0 | 0.00 | 0.00 | 0.00 | 42 | 1014.0 |
| 20260506231058 | 51 | 111 | 1.0 | 2.0 | 0.00 | 0.00 | 0.00 | 43 | 1014.2 |
| 20260506230554 | 51 | 283 | 7.0 | 8.0 | 0.00 | 0.00 | 0.00 | 42 | 1013.9 |
| 20260506230051 | 51 | 62 | 1.0 | 1.0 | 0.00 | 0.00 | 0.00 | 43 | 1014.1 |
| 20260506225548 | 51 | 155 | 2.0 | 2.0 | 0.00 | 0.00 | 0.00 | 43 | 1013.9 |
| 20260506225044 | 51 | 321 | 5.0 | 7.0 | 0.00 | 0.00 | 0.00 | 42 | 1014.0 |
| 20260506224541 | 52 | 287 | 3.0 | 3.0 | 0.00 | 0.00 | 0.00 | 43 | 1013.9 |
| 20260506224038 | 52 | 102 | 2.0 | 3.0 | 0.00 | 0.00 | 0.00 | 43 | 1013.9 |
| 20260506223534 | 52 | 310 | 4.0 | 5.0 | 0.00 | 0.00 | 0.00 | 42 | 1013.8 |
| 20260506223030 | 52 | 297 | 4.0 | 7.0 | 0.00 | 0.00 | 0.00 | 41 | 1013.7 |
| 20260506222527 | 52 | 141 | 2.0 | 2.0 | 0.00 | 0.00 | 0.00 | 43 | 1013.7 |
| 20260506222024 | 52 | 249 | 3.0 | 5.0 | 0.00 | 0.00 | 0.00 | 42 | 1013.8 |
| 20260506221521 | 52 | 305 | 2.0 | 3.0 | 0.00 | 0.00 | 0.00 | 42 | 1013.6 |
| 20260506221019 | 52 | 315 | 2.0 | 3.0 | 0.00 | 0.00 | 0.00 | 43 | 1013.6 |
| 20260506220514 | 52 | 29 | 4.0 | 5.0 | 0.00 | 0.00 | 0.00 | 42 | 1013.8 |
| 20260506220010 | 52 | 299 | 3.0 | 3.0 | 0.00 | 0.00 | 0.00 | 43 | 1013.3 |
| 20260506215508 | 53 | 139 | 1.0 | 2.0 | 0.00 | 0.00 | 0.00 | 43 | 1013.7 |
| 20260506215004 | 52 | 216 | 4.0 | 7.0 | 0.00 | 0.00 | 0.00 | 43 | 1013.4 |
| 20260506214501 | 52 | 83 | 1.0 | 1.0 | 0.00 | 0.00 | 0.00 | 43 | 1013.7 |
| 20260506213958 | 53 | 258 | 3.0 | 3.0 | 0.00 | 0.00 | 0.00 | 41 | 1013.7 |
| 20260506213456 | 53 | 293 | 4.0 | 6.0 | 0.00 | 0.00 | 0.00 | 42 | 1013.4 |
| 20260506212952 | 53 | 286 | 3.0 | 6.0 | 0.00 | 0.00 | 0.00 | 43 | 1013.5 |
| 20260506212448 | 53 | 119 | 2.0 | 2.0 | 0.00 | 0.00 | 0.00 | 42 | 1013.5 |
| 20260506211943 | 53 | 357 | 1.0 | 1.0 | 0.00 | 0.00 | 0.00 | 42 | 1013.5 |
| 20260506211439 | 53 | 286 | 5.0 | 6.0 | 0.00 | 0.00 | 0.00 | 40 | 1013.6 |
| 20260506210937 | 53 | 2 | 3.0 | 3.0 | 0.00 | 0.00 | 0.00 | 40 | 1013.5 |
| 20260506210433 | 53 | 211 | 4.0 | 6.0 | 0.00 | 0.00 | 0.00 | 41 | 1013.6 |
| 20260506205931 | 53 | 216 | 5.0 | 6.0 | 0.00 | 0.00 | 0.00 | 41 | 1013.7 |
| 20260506205426 | 54 | 296 | 4.0 | 8.0 | 0.00 | 0.00 | 0.00 | 40 | 1013.4 |
| 20260506204923 | 55 | 67 | 2.0 | 3.0 | 0.00 | 0.00 | 0.00 | 39 | 1013.5 |
| 20260506204421 | 54 | 270 | 3.0 | 5.0 | 0.00 | 0.00 | 0.00 | 40 | 1013.7 |
| 20260506203918 | 54 | 176 | 3.0 | 5.0 | 0.00 | 0.00 | 0.00 | 41 | 1013.8 |
| 20260506203415 | 53 | 355 | 2.0 | 3.0 | 0.00 | 0.00 | 0.00 | 42 | 1013.7 |
| 20260506202912 | 54 | 69 | 5.0 | 7.0 | 0.00 | 0.00 | 0.00 | 40 | 1013.6 |
| 20260506202409 | 54 | 170 | 3.0 | 3.0 | 0.00 | 0.00 | 0.00 | 40 | 1013.7 |
| 20260506201905 | 54 | 244 | 3.0 | 3.0 | 0.00 | 0.00 | 0.00 | 40 | 1013.8 |
| 20260506201403 | 54 | 305 | 4.0 | 6.0 | 0.00 | 0.00 | 0.00 | 40 | 1013.8 |
| 20260506200859 | 54 | 93 | 1.0 | 1.0 | 0.00 | 0.00 | 0.00 | 40 | 1013.9 |
| 20260506200356 | 54 | 128 | 0.0 | 1.0 | 0.00 | 0.00 | 0.00 | 40 | 1014.0 |
| 20260506195852 | 54 | 323 | 5.0 | 7.0 | 0.00 | 0.00 | 0.00 | 40 | 1013.7 |
| 20260506195349 | 54 | 277 | 5.0 | 6.0 | 0.00 | 0.00 | 0.00 | 41 | 1013.8 |
| 20260506194846 | 54 | 354 | 5.0 | 7.0 | 0.00 | 0.00 | 0.00 | 40 | 1013.9 |
| 20260506194343 | 55 | 284 | 4.0 | 5.0 | 0.00 | 0.00 | 0.00 | 39 | 1013.7 |
| 20260506193840 | 55 | 230 | 3.0 | 3.0 | 0.00 | 0.00 | 0.00 | 39 | 1013.7 |
| 20260506193337 | 55 | 298 | 8.0 | 9.0 | 0.00 | 0.00 | 0.00 | 39 | 1013.8 |
| 20260506192833 | 55 | 101 | 6.0 | 9.0 | 0.00 | 0.00 | 0.00 | 39 | 1013.7 |
| 20260506192330 | 54 | 23 | 2.0 | 2.0 | 0.00 | 0.00 | 0.00 | 42 | 1013.9 |
| 20260506191827 | 53 | 48 | 3.0 | 6.0 | 0.00 | 0.00 | 0.00 | 41 | 1013.8 |
| 20260506191323 | 54 | 122 | 2.0 | 2.0 | 0.00 | 0.00 | 0.00 | 41 | 1013.9 |
| 20260506190821 | 54 | 238 | 1.0 | 2.0 | 0.00 | 0.00 | 0.00 | 42 | 1013.7 |
| 20260506190317 | 54 | 128 | 3.0 | 3.0 | 0.00 | 0.00 | 0.00 | 41 | 1013.8 |
| 20260506185814 | 54 | 298 | 3.0 | 3.0 | 0.00 | 0.00 | 0.00 | 42 | 1014.0 |
| 20260506185311 | 53 | 252 | 3.0 | 3.0 | 0.00 | 0.00 | 0.00 | 42 | 1014.0 |
| 20260506184808 | 53 | 309 | 6.0 | 7.0 | 0.00 | 0.00 | 0.00 | 42 | 1013.9 |
| 20260506184305 | 53 | 33 | 2.0 | 3.0 | 0.00 | 0.00 | 0.00 | 41 | 1013.9 |
| 20260506183802 | 54 | 309 | 4.0 | 6.0 | 0.00 | 0.00 | 0.00 | 41 | 1013.7 |
| 20260506183257 | 54 | 280 | 3.0 | 3.0 | 0.00 | 0.00 | 0.00 | 42 | 1013.9 |
| 20260506182755 | 54 | 211 | 4.0 | 6.0 | 0.00 | 0.00 | 0.00 | 40 | 1013.8 |
| 20260506182252 | 55 | 74 | 1.0 | 1.0 | 0.00 | 0.00 | 0.00 | 42 | 1013.9 |
| 20260506181749 | 55 | 346 | 2.0 | 2.0 | 0.00 | 0.00 | 0.00 | 39 | 1013.6 |
| 20260506181247 | 55 | 161 | 2.0 | 3.0 | 0.00 | 0.00 | 0.00 | 41 | 1013.8 |
| 20260506180744 | 53 | 315 | 2.0 | 2.0 | 0.00 | 0.00 | 0.00 | 42 | 1013.8 |
| 20260506180240 | 53 | 35 | 2.0 | 2.0 | 0.00 | 0.00 | 0.00 | 41 | 1013.7 |
| 20260506175736 | 55 | 295 | 3.0 | 5.0 | 0.00 | 0.00 | 0.00 | 43 | 1013.8 |
| 20260506175233 | 53 | 222 | 3.0 | 3.0 | 0.00 | 0.00 | 0.00 | 42 | 1014.0 |
| 20260506174731 | 53 | 339 | 3.0 | 5.0 | 0.00 | 0.00 | 0.00 | 41 | 1013.8 |
| 20260506174227 | 53 | 318 | 7.0 | 8.0 | 0.00 | 0.00 | 0.00 | 40 | 1014.1 |
| 20260506173725 | 53 | 321 | 4.0 | 6.0 | 0.00 | 0.00 | 0.00 | 42 | 1014.2 |
| 20260506173222 | 54 | 96 | 3.0 | 5.0 | 0.00 | 0.00 | 0.00 | 41 | 1014.0 |
| 20260506172719 | 54 | 305 | 2.0 | 2.0 | 0.00 | 0.00 | 0.00 | 43 | 1014.1 |
| 20260506172215 | 53 | 204 | 1.0 | 2.0 | 0.00 | 0.00 | 0.00 | 43 | 1014.2 |
| 20260506171713 | 53 | 4 | 3.0 | 5.0 | 0.00 | 0.00 | 0.00 | 43 | 1014.1 |
| 20260506171210 | 53 | 226 | 4.0 | 7.0 | 0.00 | 0.00 | 0.00 | 43 | 1014.2 |
| 20260506170708 | 53 | 330 | 5.0 | 6.0 | 0.00 | 0.00 | 0.00 | 43 | 1014.5 |
| 20260506170204 | 53 | 101 | 3.0 | 3.0 | 0.00 | 0.00 | 0.00 | 43 | 1014.3 |
| 20260506165703 | 52 | 152 | 2.0 | 2.0 | 0.00 | 0.00 | 0.00 | 45 | 1014.3 |
| 20260506165159 | 53 | 229 | 5.0 | 6.0 | 0.00 | 0.00 | 0.00 | 43 | 1014.4 |
| 20260506164656 | 54 | 65 | 2.0 | 2.0 | 0.00 | 0.00 | 0.00 | 43 | 1014.5 |
| 20260506164154 | 52 | 358 | 4.0 | 5.0 | 0.00 | 0.00 | 0.00 | 43 | 1014.3 |
| 20260506163650 | 52 | 95 | 2.0 | 2.0 | 0.00 | 0.00 | 0.00 | 43 | 1014.3 |
| 20260506163145 | 52 | 348 | 3.0 | 3.0 | 0.00 | 0.00 | 0.00 | 44 | 1014.5 |
| 20260506162641 | 52 | 275 | 2.0 | 3.0 | 0.00 | 0.00 | 0.00 | 41 | 1014.1 |
| 20260506162139 | 51 | 28 | 1.0 | 2.0 | 0.00 | 0.00 | 0.00 | 44 | 1014.1 |
| 20260506161636 | 52 | 343 | 3.0 | 5.0 | 0.00 | 0.00 | 0.00 | 43 | 1014.1 |
| 20260506161133 | 53 | 250 | 5.0 | 7.0 | 0.00 | 0.00 | 0.00 | 41 | 1014.2 |
| 20260506160630 | 53 | 61 | 0.0 | 1.0 | 0.00 | 0.00 | 0.00 | 42 | 1014.5 |
| 20260506160127 | 52 | 305 | 3.0 | 3.0 | 0.00 | 0.00 | 0.00 | 41 | 1014.3 |
| 20260506155626 | 52 | 233 | 3.0 | 3.0 | 0.00 | 0.00 | 0.00 | 42 | 1014.1 |
| 20260506155122 | 51 | 64 | 2.0 | 3.0 | 0.00 | 0.00 | 0.00 | 44 | 1014.2 |
| 20260506153219 | 51 | 279 | 3.0 | 3.0 | 0.00 | 0.00 | 0.00 | 44 | 1013.9 |
| 20260506152715 | 51 | 288 | 3.0 | 3.0 | 0.00 | 0.00 | 0.00 | 43 | 1014.1 |
| 20260506152213 | 52 | 109 | 2.0 | 3.0 | 0.00 | 0.00 | 0.00 | 44 | 1014.1 |
| 20260506151712 | 52 | 179 | 4.0 | 5.0 | 0.00 | 0.00 | 0.00 | 42 | 1014.2 |
| 20260506151208 | 51 | 173 | 4.0 | 6.0 | 0.00 | 0.00 | 0.00 | 42 | 1014.3 |
| 20260506150704 | 53 | 227 | 4.0 | 8.0 | 0.00 | 0.00 | 0.00 | 43 | 1014.0 |
| 20260506150202 | 54 | 277 | 3.0 | 3.0 | 0.00 | 0.00 | 0.00 | 42 | 1014.2 |
| 20260506145659 | 54 | 178 | 3.0 | 3.0 | 0.00 | 0.00 | 0.00 | 42 | 1014.2 |
| 20260506145155 | 53 | 133 | 1.0 | 2.0 | 0.00 | 0.00 | 0.00 | 44 | 1014.3 |
| 20260506144653 | 52 | 268 | 3.0 | 5.0 | 0.00 | 0.00 | 0.00 | 44 | 1014.3 |
| 20260506144149 | 52 | 293 | 2.0 | 2.0 | 0.00 | 0.00 | 0.00 | 46 | 1014.3 |
| 20260506143647 | 52 | 11 | 5.0 | 6.0 | 0.00 | 0.00 | 0.00 | 44 | 1014.2 |
| 20260506143145 | 52 | 329 | 5.0 | 6.0 | 0.00 | 0.00 | 0.00 | 46 | 1014.3 |
| 20260506142643 | 52 | 139 | 4.0 | 7.0 | 0.00 | 0.00 | 0.00 | 44 | 1014.4 |
| 20260506142141 | 51 | 281 | 2.0 | 6.0 | 0.00 | 0.00 | 0.00 | 45 | 1014.3 |
| 20260506141638 | 50 | 357 | 3.0 | 5.0 | 0.00 | 0.00 | 0.00 | 46 | 1014.4 |
| 20260506141136 | 50 | 327 | 8.0 | 11.0 | 0.00 | 0.00 | 0.00 | 43 | 1014.1 |
| 20260506140633 | 51 | 29 | 1.0 | 1.0 | 0.00 | 0.00 | 0.00 | 45 | 1014.4 |
| 20260506140131 | 51 | 114 | 0.0 | 1.0 | 0.00 | 0.00 | 0.00 | 47 | 1014.1 |
| 20260506135628 | 51 | 344 | 2.0 | 2.0 | 0.00 | 0.00 | 0.00 | 46 | 1014.5 |
| 20260506135124 | 50 | 23 | 1.0 | 1.0 | 0.00 | 0.00 | 0.00 | 47 | 1014.1 |
| 20260506134621 | 50 | 290 | 3.0 | 3.0 | 0.00 | 0.00 | 0.00 | 45 | 1014.2 |
| 20260506134116 | 50 | 16 | 2.0 | 2.0 | 0.00 | 0.00 | 0.00 | 45 | 1014.3 |
| 20260506133614 | 49 | 324 | 2.0 | 2.0 | 0.00 | 0.00 | 0.00 | 46 | 1014.2 |
| 20260506133111 | 49 | 129 | 1.0 | 1.0 | 0.00 | 0.00 | 0.00 | 48 | 1014.2 |
| 20260506132608 | 48 | 140 | 4.0 | 7.0 | 0.00 | 0.00 | 0.00 | 47 | 1014.2 |
| 20260506132105 | 48 | 54 | 2.0 | 2.0 | 0.00 | 0.00 | 0.00 | 50 | 1014.1 |
| 20260506131602 | 48 | 259 | 2.0 | 3.0 | 0.00 | 0.00 | 0.00 | 52 | 1014.0 |
| 20260506131058 | 47 | 75 | 0.0 | 1.0 | 0.00 | 0.00 | 0.00 | 53 | 1013.9 |
| 20260506130555 | 47 | 309 | 3.0 | 3.0 | 0.00 | 0.00 | 0.00 | 54 | 1013.9 |
| 20260506130053 | 46 | 140 | 1.0 | 2.0 | 0.00 | 0.00 | 0.00 | 55 | 1013.9 |
| 20260506125551 | 46 | 65 | 0.0 | 1.0 | 0.00 | 0.00 | 0.00 | 57 | 1014.1 |
| 20260506125048 | 45 | 106 | 1.0 | 1.0 | 0.00 | 0.00 | 0.00 | 59 | 1013.8 |
| 20260506124546 | 44 | 309 | 3.0 | 3.0 | 0.00 | 0.00 | 0.00 | 59 | 1013.9 |
| 20260506124044 | 44 | 52 | 1.0 | 1.0 | 0.00 | 0.00 | 0.00 | 61 | 1013.6 |
| 20260506123541 | 44 | 2 | 1.0 | 2.0 | 0.00 | 0.00 | 0.00 | 63 | 1013.7 |
| 20260506123040 | 43 | 334 | 2.0 | 2.0 | 0.00 | 0.00 | 0.00 | 63 | 1013.8 |
| 20260506122535 | 42 | 81 | 0.0 | 1.0 | 0.00 | 0.00 | 0.00 | 65 | 1013.7 |
| 20260506122034 | 42 | 58 | 1.0 | 1.0 | 0.00 | 0.00 | 0.00 | 66 | 1013.7 |
| 20260506121531 | 41 | 82 | 0.0 | 0.0 | 0.00 | 0.00 | 0.00 | 68 | 1013.5 |
| 20260506121027 | 40 | 87 | 0.0 | 1.0 | 0.00 | 0.00 | 0.00 | 70 | 1013.6 |
| 20260506120525 | 40 | 80 | 0.0 | 0.0 | 0.00 | 0.00 | 0.00 | 72 | 1013.7 |
| 20260506120022 | 39 | 88 | 0.0 | 0.0 | 0.00 | 0.00 | 0.00 | 73 | 1013.5 |
| 20260506115520 | 38 | 84 | 0.0 | 0.0 | 0.00 | 0.00 | 0.00 | 77 | 1013.5 |
| 20260506115019 | 38 | 86 | 0.0 | 0.0 | 0.00 | 0.00 | 0.00 | 77 | 1013.6 |
| 20260506114515 | 37 | 84 | 0.0 | 0.0 | 0.00 | 0.00 | 0.00 | 78 | 1013.4 |
| 20260506114014 | 37 | 87 | 0.0 | 0.0 | 0.00 | 0.00 | 0.00 | 78 | 1013.2 |
| 20260506113511 | 36 | 86 | 0.0 | 0.0 | 0.00 | 0.00 | 0.00 | 79 | 1013.3 |
| 20260506113009 | 36 | 86 | 0.0 | 0.0 | 0.00 | 0.00 | 0.00 | 79 | 1013.2 |
| 20260506112505 | 36 | 96 | 0.0 | 1.0 | 0.00 | 0.00 | 0.00 | 79 | 1013.2 |
| 20260506112003 | 35 | 86 | 0.0 | 0.0 | 0.00 | 0.00 | 0.00 | 82 | 1013.2 |
| 20260506111501 | 34 | 86 | 0.0 | 0.0 | 0.00 | 0.00 | 0.00 | 82 | 1013.2 |
| 20260506110957 | 34 | 86 | 0.0 | 0.0 | 0.00 | 0.00 | 0.00 | 83 | 1013.2 |
| 20260506110455 | 33 | 86 | 0.0 | 0.0 | 0.00 | 0.00 | 0.00 | 82 | 1013.3 |
| 20260506105951 | 34 | 86 | 0.0 | 0.0 | 0.00 | 0.00 | 0.00 | 81 | 1012.7 |
| 20260506105448 | 34 | 86 | 0.0 | 0.0 | 0.00 | 0.00 | 0.00 | 80 | 1012.7 |
| 20260506104945 | 34 | 115 | 0.0 | 0.0 | 0.00 | 0.00 | 0.00 | 81 | 1012.7 |
| 20260506104443 | 33 | 83 | 0.0 | 0.0 | 0.00 | 0.00 | 0.00 | 83 | 1012.8 |
| 20260506103941 | 33 | 83 | 0.0 | 0.0 | 0.00 | 0.00 | 0.00 | 82 | 1012.8 |
| 20260506103438 | 33 | 83 | 0.0 | 0.0 | 0.00 | 0.00 | 0.00 | 82 | 1012.9 |
| 20260506102935 | 33 | 83 | 0.0 | 0.0 | 0.00 | 0.00 | 0.00 | 81 | 1012.8 |
| 20260506102433 | 34 | 83 | 0.0 | 0.0 | 0.00 | 0.00 | 0.00 | 81 | 1012.7 |
| 20260506101930 | 34 | 82 | 0.0 | 0.0 | 0.00 | 0.00 | 0.00 | 82 | 1012.5 |
| 20260506101426 | 33 | 81 | 0.0 | 0.0 | 0.00 | 0.00 | 0.00 | 82 | 1012.5 |
| 20260506100924 | 33 | 82 | 0.0 | 0.0 | 0.00 | 0.00 | 0.00 | 82 | 1012.7 |
| 20260506100422 | 34 | 81 | 0.0 | 0.0 | 0.00 | 0.00 | 0.00 | 81 | 1012.7 |
| 20260506095920 | 33 | 82 | 0.0 | 0.0 | 0.00 | 0.00 | 0.00 | 81 | 1012.7 |
| 20260506095418 | 34 | 82 | 0.0 | 0.0 | 0.00 | 0.00 | 0.00 | 80 | 1012.6 |
| 20260506094914 | 34 | 82 | 0.0 | 0.0 | 0.00 | 0.00 | 0.00 | 80 | 1012.7 |
| 20260506094413 | 34 | 79 | 0.0 | 0.0 | 0.00 | 0.00 | 0.00 | 81 | 1012.7 |
| 20260506093910 | 34 | 81 | 0.0 | 0.0 | 0.00 | 0.00 | 0.00 | 82 | 1012.7 |
| 20260506093407 | 33 | 81 | 0.0 | 0.0 | 0.00 | 0.00 | 0.00 | 81 | 1012.9 |
| 20260506092905 | 34 | 81 | 0.0 | 0.0 | 0.00 | 0.00 | 0.00 | 80 | 1012.9 |
| 20260506092403 | 34 | 75 | 0.0 | 0.0 | 0.00 | 0.00 | 0.00 | 80 | 1012.6 |
| 20260506091859 | 34 | 86 | 0.0 | 0.0 | 0.00 | 0.00 | 0.00 | 79 | 1012.9 |
| 20260506091357 | 35 | 86 | 0.0 | 0.0 | 0.00 | 0.00 | 0.00 | 79 | 1012.9 |
| 20260506090854 | 35 | 88 | 0.0 | 0.0 | 0.00 | 0.00 | 0.00 | 79 | 1013.0 |
| 20260506090352 | 35 | 86 | 0.0 | 0.0 | 0.00 | 0.00 | 0.00 | 79 | 1012.6 |
| 20260506085848 | 34 | 86 | 0.0 | 0.0 | 0.00 | 0.00 | 0.00 | 80 | 1012.9 |
| 20260506085345 | 34 | 84 | 0.0 | 0.0 | 0.00 | 0.00 | 0.00 | 81 | 1012.8 |
| 20260506084841 | 34 | 82 | 0.0 | 0.0 | 0.00 | 0.00 | 0.00 | 83 | 1012.7 |
| 20260506084338 | 33 | 82 | 0.0 | 0.0 | 0.00 | 0.00 | 0.00 | 84 | 1012.6 |